This is the latest recevied weather packets stored in our database for station/object M0HPP-13. If no packets are shown the sender has not sent any weather packets the latest 10 day(s).
| Time | Temp. | Humidity | Pressure | Rain* | Wind** | Luminosity | Snow |
|---|---|---|---|---|---|---|---|
| 1788508086 | 11.67° C | 98% | 995 hPa | 0.51 mm | - | 151 W/m² | - |
| 1788507486 | 11.11° C | 98% | 995 hPa | 1.02 mm | - | 136 W/m² | - |
| 1788506886 | 11.11° C | 98% | 995.2 hPa | 1.02 mm | - | 73 W/m² | - |
| 1788506286 | 11.11° C | 97% | 995.5 hPa | 1.02 mm | - | 31 W/m² | - |
| 1788505686 | 11.11° C | 97% | 995.7 hPa | 0.76 mm | - | 25 W/m² | - |
| 1788505086 | 11.11° C | 97% | 995.6 hPa | 0.76 mm | - | 22 W/m² | - |
| 1788504486 | 11.11° C | 96% | 995.7 hPa | 0.51 mm | - | 35 W/m² | - |
| 1788503886 | 11.11° C | 96% | 995.7 hPa | 0.51 mm | - | 11 W/m² | - |
| 1788503286 | 11.11° C | 95% | 995.8 hPa | 0.25 mm | - | 9 W/m² | - |
| 1788502686 | 11.11° C | 94% | 995.9 hPa | 0.25 mm | - | 8 W/m² | - |
| 1788502086 | 11.11° C | 94% | 995.9 hPa | 0 mm | - | 7 W/m² | - |
| 1788501486 | 11.11° C | 94% | 995.9 hPa | 0 mm | - | 5 W/m² | - |
| 1788500886 | 11.11° C | 93% | 996 hPa | 0 mm | - | 4 W/m² | - |
| 1788500286 | 11.11° C | 93% | 996 hPa | 0 mm | - | 2 W/m² | - |
| 1788499686 | 11.11° C | 93% | 996.2 hPa | 0 mm | - | 1 W/m² | - |
| 1788499086 | 11.11° C | 94% | 996.4 hPa | 0 mm | - | 0 W/m² | - |
| 1788498486 | 11.11° C | 93% | 996.5 hPa | 0 mm | - | 0 W/m² | - |
| 1788497886 | 11.11° C | 92% | 996.5 hPa | 0 mm | - | 0 W/m² | - |
| 1788497286 | 11.11° C | 90% | 996.6 hPa | 0 mm | - | 0 W/m² | - |
| 1788496686 | 11.11° C | 90% | 996.7 hPa | 0 mm | - | 0 W/m² | - |
| 1788496086 | 11.11° C | 91% | 996.7 hPa | 0 mm | - | 0 W/m² | - |
| 1788495486 | 11.11° C | 90% | 997.1 hPa | 0 mm | - | 0 W/m² | - |
| 1788494886 | 11.67° C | 88% | 997.1 hPa | 0 mm | - | 0 W/m² | - |
| 1788494286 | 11.67° C | 86% | 997.2 hPa | 0 mm | - | 0 W/m² | - |
| 1788493686 | 12.22° C | 85% | 997.2 hPa | 0 mm | - | 0 W/m² | - |
* Rain latest hour (hover to see other rain measurements)
** Current wind speed in m/s (hover to see current wind gust speed)